Private Wetterstation Wechselburg
Wetterdaten: Samstag, 04.02.2012
Datum Zeit Temp. +2m Bodentemp. Temp.+5cm Temp. Wind Windchill X Diff Temp. Feuchte +2m Feuchte +5cm Sonnenschein Luftdruck Regen Wind Richtung Richtung Sonnenschein UV Taupunkt Windchill Windben
04.02.2012 00:00 -13,3 C -1,1 C -11,9 C -13,5 C -13,9 C 0,0 C 84 % 84 % 0 % 1035,9 hPa 0,0 l/m 0,2 km/h (0 Bft) W-SW 247 0 min 0,0 UV-I -15,4 C -13,9 C 0,0 km/h (0 Bft)
04.02.2012 00:10 -12,9 C -1,1 C -11,7 C -13,1 C -13,4 C 0,0 C 85 % 84 % 0 % 1035,9 hPa 0,0 l/m 0,0 km/h (0 Bft) N 0 0 min 0,0 UV-I -14,9 C -13,4 C 0,0 km/h (0 Bft)
04.02.2012 00:20 -12,9 C -1,1 C -11,6 C -12,9 C -13,0 C 0,0 C 85 % 84 % 0 % 1035,9 hPa 0,0 l/m 0,0 km/h (0 Bft) W 270 0 min 0,0 UV-I -14,9 C -13,0 C 0,0 km/h (0 Bft)
04.02.2012 00:25 -12,8 C -1,1 C -11,5 C -12,8 C -12,9 C 0,0 C 85 % 84 % 0 % 1035,9 hPa 0,0 l/m 0,0 km/h (0 Bft) W-SW 247 0 min 0,0 UV-I -14,8 C -12,9 C 0,0 km/h (0 Bft)
04.02.2012 00:30 -12,7 C -1,1 C -11,3 C -12,7 C -12,8 C 0,0 C 85 % 84 % 0 % 1035,9 hPa 0,0 l/m 0,0 km/h (0 Bft) W-SW 247 0 min 0,0 UV-I -14,7 C -12,8 C 0,0 km/h (0 Bft)
04.02.2012 00:35 -12,5 C -1,1 C -11,3 C -12,6 C -12,7 C 0,0 C 85 % 84 % 0 % 1035,9 hPa 0,0 l/m 0,0 km/h (0 Bft) W-SW 247 0 min 0,0 UV-I -14,5 C -12,7 C 0,0 km/h (0 Bft)
04.02.2012 00:40 -12,5 C -1,1 C -11,3 C -12,6 C -12,7 C 0,0 C 85 % 84 % 0 % 1035,9 hPa 0,0 l/m 0,0 km/h (0 Bft) W-SW 247 0 min 0,0 UV-I -14,5 C -12,7 C 0,0 km/h (0 Bft)
04.02.2012 00:45 -12,5 C -1,1 C -11,2 C -12,6 C -12,7 C 0,0 C 85 % 84 % 0 % 1035,9 hPa 0,0 l/m 0,0 km/h (0 Bft) W-SW 247 0 min 0,0 UV-I -14,5 C -12,7 C 0,0 km/h (0 Bft)
04.02.2012 00:50 -12,5 C -1,1 C -11,1 C -12,5 C -12,6 C 0,0 C 85 % 84 % 0 % 1035,9 hPa 0,0 l/m 0,0 km/h (0 Bft) W-SW 247 0 min 0,0 UV-I -14,5 C -12,6 C 0,0 km/h (0 Bft)
04.02.2012 00:55 -12,4 C -1,1 C -11,1 C -12,4 C -12,4 C 0,0 C 85 % 84 % 0 % 1035,9 hPa 0,0 l/m 0,0 km/h (0 Bft) W-SW 247 0 min 0,0 UV-I -14,4 C -12,4 C 0,0 km/h (0 Bft)
04.02.2012 01:00 -12,1 C -1,1 C -10,9 C -12,2 C -12,3 C 0,0 C 85 % 84 % 0 % 1039,1 hPa 0,0 l/m 0,0 km/h (0 Bft) W-SW 247 0 min 0,0 UV-I -14,1 C -12,3 C 0,0 km/h (0 Bft)
04.02.2012 01:11 -12,1 C -1,2 C -10,9 C -12,1 C -12,1 C 0,0 C 85 % 84 % 0 % 1039,1 hPa 0,0 l/m 0,0 km/h (0 Bft) N 0 0 min 0,0 UV-I -14,1 C -12,1 C 0,0 km/h (0 Bft)
04.02.2012 01:20 -11,9 C -1,2 C -10,7 C -11,8 C -11,8 C 0,1 C 86 % 85 % 0 % 1039,1 hPa 0,0 l/m 0,0 km/h (0 Bft) SW 225 0 min 0,0 UV-I -13,8 C -11,8 C 0,0 km/h (0 Bft)
04.02.2012 01:25 -11,8 C -1,2 C -10,5 C -11,7 C -11,7 C 0,1 C 86 % 85 % 0 % 1039,1 hPa 0,0 l/m 0,0 km/h (0 Bft) SW 225 0 min 0,0 UV-I -13,7 C -11,7 C 0,0 km/h (0 Bft)
04.02.2012 01:30 -11,7 C -1,2 C -10,5 C -11,6 C -11,6 C 0,1 C 86 % 85 % 0 % 1039,1 hPa 0,0 l/m 0,0 km/h (0 Bft) W-SW 247 0 min 0,0 UV-I -13,6 C -11,6 C 0,0 km/h (0 Bft)
04.02.2012 01:35 -11,6 C -1,2 C -10,5 C -11,6 C -11,6 C 0,0 C 86 % 85 % 0 % 1039,1 hPa 0,0 l/m 0,0 km/h (0 Bft) W-SW 247 0 min 0,0 UV-I -13,5 C -11,6 C 0,0 km/h (0 Bft)
04.02.2012 01:40 -11,6 C -1,2 C -10,5 C -11,6 C -11,6 C 0,0 C 86 % 85 % 0 % 1039,1 hPa 0,0 l/m 0,0 km/h (0 Bft) SW 225 0 min 0,0 UV-I -13,5 C -11,6 C 0,0 km/h (0 Bft)
04.02.2012 01:45 -11,5 C -1,2 C -10,4 C -11,5 C -11,5 C 0,0 C 86 % 85 % 0 % 1039,1 hPa 0,0 l/m 0,0 km/h (0 Bft) W-SW 247 0 min 0,0 UV-I -13,4 C -11,5 C 0,0 km/h (0 Bft)
04.02.2012 01:50 -11,3 C -1,2 C -10,4 C -11,4 C -11,5 C 0,0 C 86 % 85 % 0 % 1039,1 hPa 0,0 l/m 0,0 km/h (0 Bft) SW 225 0 min 0,0 UV-I -13,2 C -11,5 C 0,0 km/h (0 Bft)
04.02.2012 01:55 -11,3 C -1,2 C -10,3 C -11,3 C -11,3 C 0,0 C 86 % 85 % 0 % 1039,1 hPa 0,0 l/m 0,0 km/h (0 Bft) W-SW 247 0 min 0,0 UV-I -13,2 C -11,3 C 0,0 km/h (0 Bft)
04.02.2012 02:00 -11,3 C -1,2 C -10,3 C -11,3 C -11,3 C 0,0 C 86 % 85 % 0 % 1039,1 hPa 0,0 l/m 0,2 km/h (0 Bft) W-SW 247 0 min 0,0 UV-I -13,2 C -11,3 C 0,0 km/h (0 Bft)
04.02.2012 02:10 -11,2 C -1,2 C -10,1 C -11,2 C -11,2 C 0,0 C 86 % 85 % 0 % 1039,1 hPa 0,0 l/m 0,3 km/h (0 Bft) N 0 0 min 0,0 UV-I -13,1 C -11,2 C 0,0 km/h (0 Bft)
04.02.2012 02:20 -11,1 C -1,2 C -10,1 C -11,1 C -11,2 C 0,0 C 86 % 85 % 0 % 1039,1 hPa 0,0 l/m 0,6 km/h (0 Bft) W 270 0 min 0,0 UV-I -13,0 C -11,2 C 2,3 km/h (1 Bft)
04.02.2012 02:25 -10,9 C -1,2 C -10,1 C -11,0 C -11,2 C 0,0 C 86 % 85 % 0 % 1039,1 hPa 0,0 l/m 0,8 km/h (0 Bft) W-SW 247 0 min 0,0 UV-I -12,8 C -11,2 C 1,8 km/h (1 Bft)
04.02.2012 02:30 -10,9 C -1,2 C -10,1 C -11,0 C -11,2 C 0,0 C 86 % 85 % 0 % 1039,1 hPa 0,0 l/m 0,8 km/h (0 Bft) W-SW 247 0 min 0,0 UV-I -12,8 C -11,2 C 2,7 km/h (1 Bft)
04.02.2012 02:35 -10,9 C -1,2 C -10,1 C -11,0 C -11,2 C 0,0 C 86 % 86 % 0 % 1039,1 hPa 0,0 l/m 1,0 km/h (0 Bft) W 270 0 min 0,0 UV-I -12,8 C -11,2 C 0,0 km/h (0 Bft)
04.02.2012 02:40 -10,9 C -1,2 C -10,1 C -11,0 C -11,3 C 0,0 C 86 % 86 % 0 % 1039,1 hPa 0,0 l/m 0,8 km/h (0 Bft) W 270 0 min 0,0 UV-I -12,8 C -11,3 C 0,0 km/h (0 Bft)
04.02.2012 02:45 -10,9 C -1,2 C -10,1 C -11,2 C -11,7 C 0,0 C 86 % 86 % 0 % 1039,1 hPa 0,0 l/m 0,2 km/h (0 Bft) SW 225 0 min 0,0 UV-I -12,8 C -11,7 C 0,0 km/h (0 Bft)
04.02.2012 02:50 -11,1 C -1,2 C -10,3 C -11,4 C -12,1 C 0,0 C 86 % 85 % 0 % 1039,1 hPa 0,0 l/m 0,5 km/h (0 Bft) W-SW 247 0 min 0,0 UV-I -13,0 C -12,1 C 3,1 km/h (1 Bft)
04.02.2012 02:55 -11,1 C -1,2 C -10,5 C -11,5 C -12,4 C 0,0 C 85 % 85 % 0 % 1039,1 hPa 0,0 l/m 0,6 km/h (0 Bft) W-SW 247 0 min 0,0 UV-I -13,1 C -12,4 C 0,0 km/h (0 Bft)
04.02.2012 03:00 -11,2 C -1,2 C -10,5 C -11,7 C -12,7 C 0,0 C 85 % 85 % 0 % 1039,1 hPa 0,0 l/m 0,3 km/h (0 Bft) W-SW 247 0 min 0,0 UV-I -13,2 C -12,7 C 3,1 km/h (1 Bft)
04.02.2012 03:11 -11,3 C -1,2 C -10,5 C -11,9 C -13,2 C 0,0 C 85 % 85 % 0 % 1039,1 hPa 0,0 l/m 0,0 km/h (0 Bft) N 0 0 min 0,0 UV-I -13,3 C -13,2 C 0,0 km/h (0 Bft)
04.02.2012 03:20 -11,6 C -1,1 C -10,7 C -12,1 C -13,2 C 0,0 C 85 % 85 % 0 % 1039,0 hPa 0,0 l/m 0,0 km/h (0 Bft) S-SW 202 0 min 0,0 UV-I -13,6 C -13,2 C 0,0 km/h (0 Bft)
04.02.2012 03:25 -11,7 C -1,1 C -10,9 C -12,2 C -13,2 C 0,0 C 85 % 85 % 0 % 1039,0 hPa 0,0 l/m 0,0 km/h (0 Bft) S-SW 202 0 min 0,0 UV-I -13,7 C -13,2 C 0,0 km/h (0 Bft)
04.02.2012 03:30 -11,7 C -1,1 C -11,0 C -12,2 C -13,2 C 0,0 C 85 % 85 % 0 % 1039,0 hPa 0,0 l/m 0,0 km/h (0 Bft) S-SW 202 0 min 0,0 UV-I -13,7 C -13,2 C 0,0 km/h (0 Bft)
04.02.2012 03:35 -11,7 C -1,1 C -10,9 C -12,1 C -12,9 C 0,0 C 85 % 85 % 0 % 1039,0 hPa 0,0 l/m 0,0 km/h (0 Bft) S-SW 202 0 min 0,0 UV-I -13,7 C -12,9 C 0,0 km/h (0 Bft)
04.02.2012 03:40 -11,7 C -1,1 C -10,9 C -12,1 C -12,8 C 0,0 C 85 % 86 % 0 % 1039,0 hPa 0,0 l/m 0,0 km/h (0 Bft) S-SW 202 0 min 0,0 UV-I -13,7 C -12,8 C 0,0 km/h (0 Bft)
04.02.2012 03:45 -11,7 C -1,2 C -10,9 C -12,0 C -12,6 C 0,0 C 85 % 86 % 0 % 1039,0 hPa 0,0 l/m 0,0 km/h (0 Bft) S-SW 202 0 min 0,0 UV-I -13,7 C -12,6 C 0,0 km/h (0 Bft)
04.02.2012 03:50 -11,7 C -1,2 C -10,9 C -11,9 C -12,3 C 0,0 C 86 % 86 % 0 % 1039,0 hPa 0,0 l/m 0,3 km/h (0 Bft) O-NO 67 0 min 0,0 UV-I -13,6 C -12,3 C 1,9 km/h (1 Bft)
04.02.2012 03:55 -11,6 C -1,2 C -10,8 C -11,8 C -12,1 C 0,0 C 86 % 86 % 0 % 1039,0 hPa 0,0 l/m 0,5 km/h (0 Bft) N-NW 337 0 min 0,0 UV-I -13,5 C -12,1 C 1,6 km/h (1 Bft)
04.02.2012 04:00 -11,6 C -1,2 C -10,8 C -11,8 C -12,1 C 0,0 C 86 % 86 % 0 % 1039,0 hPa 0,0 l/m 0,5 km/h (0 Bft) O-SO 112 0 min 0,0 UV-I -13,5 C -12,1 C 0,0 km/h (0 Bft)
04.02.2012 04:11 -11,6 C -1,2 C -10,7 C -11,8 C -12,2 C 0,0 C 86 % 86 % 0 % 1039,0 hPa 0,0 l/m 0,0 km/h (0 Bft) N 0 0 min 0,0 UV-I -13,5 C -12,2 C 0,0 km/h (0 Bft)
04.02.2012 04:20 -11,6 C -1,2 C -10,7 C -11,8 C -12,1 C 0,0 C 86 % 86 % 0 % 1039,0 hPa 0,0 l/m 0,0 km/h (0 Bft) O-NO 67 0 min 0,0 UV-I -13,5 C -12,1 C 0,0 km/h (0 Bft)
04.02.2012 04:25 -11,6 C -1,2 C -10,5 C -11,7 C -11,9 C 0,0 C 86 % 87 % 0 % 1039,0 hPa 0,0 l/m 0,0 km/h (0 Bft) NW 315 0 min 0,0 UV-I -13,5 C -11,9 C 0,0 km/h (0 Bft)
04.02.2012 04:30 -11,5 C -1,2 C -10,5 C -11,6 C -11,8 C 0,0 C 86 % 86 % 0 % 1039,0 hPa 0,0 l/m 0,0 km/h (0 Bft) W 270 0 min 0,0 UV-I -13,4 C -11,8 C 0,0 km/h (0 Bft)
04.02.2012 04:35 -11,5 C -1,2 C -10,7 C -11,6 C -11,8 C 0,0 C 86 % 86 % 0 % 1039,0 hPa 0,0 l/m 0,8 km/h (0 Bft) SW 225 0 min 0,0 UV-I -13,4 C -11,8 C 4,0 km/h (1 Bft)
04.02.2012 04:40 -11,6 C -1,2 C -10,8 C -11,7 C -11,8 C 0,0 C 86 % 86 % 0 % 1039,0 hPa 0,0 l/m 1,1 km/h (1 Bft) W 270 0 min 0,0 UV-I -13,5 C -11,8 C 0,0 km/h (0 Bft)
04.02.2012 04:45 -11,6 C -1,2 C -10,9 C -11,7 C -11,9 C 0,0 C 86 % 86 % 0 % 1039,0 hPa 0,0 l/m 1,3 km/h (1 Bft) W-SW 247 0 min 0,0 UV-I -13,5 C -11,9 C 5,1 km/h (1 Bft)
04.02.2012 04:50 -11,7 C -1,2 C -10,9 C -11,8 C -11,9 C 0,0 C 86 % 86 % 0 % 1039,0 hPa 0,0 l/m 1,6 km/h (1 Bft) W-SW 247 0 min 0,0 UV-I -13,6 C -11,9 C 2,1 km/h (1 Bft)
04.02.2012 04:55 -11,7 C -1,2 C -10,9 C -11,8 C -12,1 C 0,0 C 86 % 86 % 0 % 1039,0 hPa 0,0 l/m 1,4 km/h (1 Bft) W 270 0 min 0,0 UV-I -13,6 C -12,1 C 0,0 km/h (0 Bft)
04.02.2012 05:00 -11,7 C -1,2 C -10,9 C -11,8 C -12,1 C 0,0 C 86 % 87 % 0 % 1038,8 hPa 0,0 l/m 0,2 km/h (0 Bft) W-SW 247 0 min 0,0 UV-I -13,6 C -12,1 C 0,0 km/h (0 Bft)
04.02.2012 05:05 -11,7 C -1,2 C -10,9 C -11,8 C -12,1 C 0,0 C 86 % 86 % 0 % 1038,8 hPa 0,0 l/m 0,3 km/h (0 Bft) W 270 0 min 0,0 UV-I -13,6 C -12,1 C 0,0 km/h (0 Bft)
04.02.2012 05:10 -11,7 C -1,2 C -10,9 C -11,8 C -12,1 C 0,0 C 86 % 86 % 0 % 1038,8 hPa 0,0 l/m 0,3 km/h (0 Bft) SW 225 0 min 0,0 UV-I -13,6 C -12,1 C 0,0 km/h (0 Bft)
04.02.2012 05:15 -11,7 C -1,2 C -10,9 C -11,8 C -12,1 C 0,0 C 86 % 86 % 0 % 1038,8 hPa 0,0 l/m 0,0 km/h (0 Bft) W 270 0 min 0,0 UV-I -13,6 C -12,1 C 0,0 km/h (0 Bft)
04.02.2012 05:20 -11,7 C -1,2 C -10,8 C -11,8 C -12,1 C 0,0 C 86 % 86 % 0 % 1038,8 hPa 0,0 l/m 0,2 km/h (0 Bft) NW 315 0 min 0,0 UV-I -13,6 C -12,1 C 0,0 km/h (0 Bft)
04.02.2012 05:25 -11,7 C -1,2 C -10,9 C -11,8 C -11,9 C 0,0 C 86 % 86 % 0 % 1038,8 hPa 0,0 l/m 0,5 km/h (0 Bft) W-NW 292 0 min 0,0 UV-I -13,6 C -11,9 C 0,0 km/h (0 Bft)
04.02.2012 05:30 -11,7 C -1,2 C -10,9 C -11,8 C -11,9 C 0,0 C 86 % 86 % 0 % 1038,8 hPa 0,0 l/m 0,3 km/h (0 Bft) W 270 0 min 0,0 UV-I -13,6 C -11,9 C 0,0 km/h (0 Bft)
04.02.2012 05:35 -11,7 C -1,2 C -10,8 C -11,8 C -12,1 C 0,0 C 86 % 86 % 0 % 1038,8 hPa 0,0 l/m 0,2 km/h (0 Bft) NW 315 0 min 0,0 UV-I -13,6 C -12,1 C 0,0 km/h (0 Bft)
04.02.2012 05:40 -11,7 C -1,2 C -10,8 C -11,8 C -12,1 C 0,0 C 86 % 86 % 0 % 1038,8 hPa 0,0 l/m 0,2 km/h (0 Bft) W-SW 247 0 min 0,0 UV-I -13,6 C -12,1 C 3,2 km/h (1 Bft)
04.02.2012 05:45 -11,7 C -1,2 C -10,9 C -11,8 C -12,1 C 0,0 C 86 % 86 % 0 % 1038,8 hPa 0,0 l/m 1,1 km/h (1 Bft) SW 225 0 min 0,0 UV-I -13,6 C -12,1 C 1,6 km/h (1 Bft)
04.02.2012 05:50 -11,7 C -1,2 C -10,9 C -11,8 C -12,1 C 0,0 C 86 % 86 % 0 % 1038,8 hPa 0,0 l/m 1,3 km/h (1 Bft) W-SW 247 0 min 0,0 UV-I -13,6 C -12,1 C 0,0 km/h (0 Bft)
04.02.2012 05:55 -11,7 C -1,2 C -10,9 C -11,8 C -12,1 C 0,0 C 86 % 86 % 0 % 1038,8 hPa 0,0 l/m 0,2 km/h (0 Bft) W-SW 247 0 min 0,0 UV-I -13,6 C -12,1 C 0,0 km/h (0 Bft)
04.02.2012 06:00 -11,7 C -1,2 C -10,9 C -11,8 C -12,1 C 0,0 C 86 % 86 % 0 % 1038,8 hPa 0,0 l/m 0,0 km/h (0 Bft) SW 225 0 min 0,0 UV-I -13,6 C -12,1 C 0,0 km/h (0 Bft)
04.02.2012 06:11 -11,7 C -1,2 C -10,9 C -11,8 C -12,1 C 0,0 C 86 % 86 % 0 % 1038,8 hPa 0,0 l/m 1,0 km/h (0 Bft) N 0 0 min 0,0 UV-I -13,6 C -12,1 C 0,0 km/h (0 Bft)
04.02.2012 06:20 -11,7 C -1,2 C -10,9 C -11,9 C -12,2 C 0,0 C 86 % 86 % 0 % 1038,8 hPa 0,0 l/m 0,2 km/h (0 Bft) SW 225 0 min 0,0 UV-I -13,6 C -12,2 C 2,3 km/h (1 Bft)
04.02.2012 06:25 -11,7 C -1,2 C -10,9 C -11,9 C -12,3 C 0,0 C 86 % 86 % 0 % 1038,8 hPa 0,0 l/m 0,5 km/h (0 Bft) W-SW 247 0 min 0,0 UV-I -13,6 C -12,3 C 2,3 km/h (1 Bft)
04.02.2012 06:30 -11,7 C -1,2 C -11,0 C -11,9 C -12,3 C 0,0 C 86 % 86 % 0 % 1038,8 hPa 0,0 l/m 0,3 km/h (0 Bft) S-SW 202 0 min 0,0 UV-I -13,6 C -12,3 C 0,0 km/h (0 Bft)
04.02.2012 06:35 -11,9 C -1,2 C -10,9 C -12,0 C -12,3 C 0,0 C 86 % 86 % 0 % 1038,8 hPa 0,0 l/m 0,6 km/h (0 Bft) SW 225 0 min 0,0 UV-I -13,8 C -12,3 C 2,7 km/h (1 Bft)
04.02.2012 06:40 -11,9 C -1,2 C -11,1 C -12,0 C -12,3 C 0,0 C 86 % 86 % 0 % 1038,8 hPa 0,0 l/m 1,1 km/h (1 Bft) SW 225 0 min 0,0 UV-I -13,8 C -12,3 C 0,0 km/h (0 Bft)
04.02.2012 06:45 -11,9 C -1,2 C -11,1 C -12,2 C -12,7 C 0,0 C 86 % 86 % 0 % 1038,8 hPa 0,0 l/m 1,9 km/h (1 Bft) W-SW 247 0 min 0,0 UV-I -13,8 C -12,7 C 1,8 km/h (1 Bft)
04.02.2012 06:50 -12,0 C -1,2 C -11,1 C -12,1 C -12,3 C 0,0 C 86 % 86 % 0 % 1038,8 hPa 0,0 l/m 1,3 km/h (1 Bft) S 180 0 min 0,0 UV-I -13,9 C -12,3 C 0,0 km/h (0 Bft)
04.02.2012 06:55 -11,9 C -1,2 C -10,9 C -12,0 C -12,3 C 0,0 C 86 % 86 % 0 % 1038,8 hPa 0,0 l/m 0,3 km/h (0 Bft) O-SO 112 0 min 0,0 UV-I -13,8 C -12,3 C 0,0 km/h (0 Bft)
04.02.2012 07:00 -11,9 C -1,3 C -10,9 C -12,0 C -12,2 C 0,0 C 86 % 86 % 0 % 1038,8 hPa 0,0 l/m 0,0 km/h (0 Bft) O-SO 112 0 min 0,0 UV-I -13,8 C -12,2 C 0,0 km/h (0 Bft)
04.02.2012 07:11 -11,9 C -1,2 C -10,9 C -12,0 C -12,2 C 0,0 C 86 % 86 % 0 % 1038,8 hPa 0,0 l/m 0,0 km/h (0 Bft) N 0 0 min 0,0 UV-I -13,8 C -12,2 C 0,0 km/h (0 Bft)
04.02.2012 07:20 -11,9 C -1,3 C -10,9 C -12,0 C -12,2 C 0,0 C 86 % 86 % 0 % 1038,8 hPa 0,0 l/m 0,0 km/h (0 Bft) O 90 0 min 0,0 UV-I -13,8 C -12,2 C 0,0 km/h (0 Bft)
04.02.2012 07:25 -11,7 C -1,2 C -10,9 C -11,8 C -12,1 C 0,0 C 86 % 86 % 0 % 1038,8 hPa 0,0 l/m 0,0 km/h (0 Bft) O-NO 67 0 min 0,0 UV-I -13,6 C -12,1 C 0,0 km/h (0 Bft)
04.02.2012 07:30 -11,8 C -1,3 C -10,7 C -11,8 C -11,9 C 0,0 C 86 % 87 % 0 % 1038,8 hPa 0,0 l/m 0,0 km/h (0 Bft) O-SO 112 0 min 0,0 UV-I -13,7 C -11,9 C 0,0 km/h (0 Bft)
04.02.2012 07:35 -11,7 C -1,3 C -10,7 C -11,7 C -11,8 C 0,0 C 86 % 86 % 0 % 1038,8 hPa 0,0 l/m 0,0 km/h (0 Bft) O-NO 67 0 min 0,0 UV-I -13,6 C -11,8 C 0,0 km/h (0 Bft)
04.02.2012 07:40 -11,7 C -1,3 C -10,7 C -11,7 C -11,8 C 0,0 C 86 % 86 % 0 % 1038,8 hPa 0,0 l/m 0,0 km/h (0 Bft) S 180 0 min 0,0 UV-I -13,6 C -11,8 C 0,0 km/h (0 Bft)
04.02.2012 07:45 -11,7 C -1,3 C -10,7 C -11,7 C -11,7 C 0,0 C 86 % 86 % 0 % 1038,8 hPa 0,0 l/m 0,0 km/h (0 Bft) S-SW 202 0 min 0,0 UV-I -13,6 C -11,7 C 0,0 km/h (0 Bft)
04.02.2012 07:50 -11,7 C -1,3 C -10,5 C -11,7 C -11,7 C 0,0 C 86 % 87 % 0 % 1038,8 hPa 0,0 l/m 0,3 km/h (0 Bft) W-SW 247 0 min 0,0 UV-I -13,6 C -11,7 C 2,1 km/h (1 Bft)
04.02.2012 07:55 -11,7 C -1,3 C -10,7 C -11,7 C -11,7 C 0,0 C 86 % 86 % 0 % 1038,8 hPa 0,0 l/m 0,3 km/h (0 Bft) SW 225 0 min 0,0 UV-I -13,6 C -11,7 C 2,1 km/h (1 Bft)
04.02.2012 08:00 -11,6 C -1,3 C -10,5 C -11,6 C -11,7 C 0,0 C 86 % 87 % 0 % 1038,8 hPa 0,0 l/m 0,2 km/h (0 Bft) SW 225 0 min 0,0 UV-I -13,5 C -11,7 C 0,0 km/h (0 Bft)
04.02.2012 08:05 -11,6 C -1,3 C -10,5 C -11,6 C -11,7 C 0,0 C 86 % 87 % 0 % 1038,8 hPa 0,0 l/m 0,0 km/h (0 Bft) SW 225 0 min 0,0 UV-I -13,5 C -11,7 C 0,0 km/h (0 Bft)
04.02.2012 08:10 -11,6 C -1,3 C -10,5 C -11,6 C -11,6 C 0,0 C 86 % 87 % 0 % 1038,8 hPa 0,0 l/m 0,0 km/h (0 Bft) S 180 0 min 0,0 UV-I -13,5 C -11,6 C 0,0 km/h (0 Bft)
04.02.2012 08:15 -11,5 C -1,3 C -10,7 C -11,5 C -11,6 C 0,0 C 86 % 86 % 0 % 1038,8 hPa 0,0 l/m 0,2 km/h (0 Bft) S 180 0 min 0,0 UV-I -13,4 C -11,6 C 2,6 km/h (1 Bft)
04.02.2012 08:20 -11,5 C -1,3 C -10,5 C -11,5 C -11,6 C 0,0 C 86 % 87 % 0 % 1038,8 hPa 0,0 l/m 0,6 km/h (0 Bft) S-SW 202 0 min 0,0 UV-I -13,4 C -11,6 C 2,6 km/h (1 Bft)
04.02.2012 08:25 -11,5 C -1,3 C -10,5 C -11,5 C -11,5 C 0,0 C 86 % 87 % 0 % 1038,8 hPa 0,0 l/m 0,5 km/h (0 Bft) S-SW 202 0 min 0,0 UV-I -13,4 C -11,5 C 0,0 km/h (0 Bft)
04.02.2012 08:30 -11,3 C -1,3 C -10,5 C -11,4 C -11,5 C 0,0 C 86 % 86 % 0 % 1038,8 hPa 0,0 l/m 0,2 km/h (0 Bft) S-SO 157 0 min 0,0 UV-I -13,2 C -11,5 C 0,0 km/h (0 Bft)
04.02.2012 08:35 -11,3 C -1,3 C -10,5 C -11,3 C -11,3 C 0,0 C 86 % 86 % 0 % 1038,8 hPa 0,0 l/m 0,2 km/h (0 Bft) SW 225 0 min 0,0 UV-I -13,2 C -11,3 C 0,0 km/h (0 Bft)
04.02.2012 08:40 -11,3 C -1,3 C -10,5 C -11,3 C -11,3 C 0,0 C 86 % 86 % 0 % 1038,8 hPa 0,0 l/m 0,2 km/h (0 Bft) SW 225 0 min 0,0 UV-I -13,2 C -11,3 C 0,0 km/h (0 Bft)
04.02.2012 08:45 -11,3 C -1,3 C -10,4 C -11,3 C -11,3 C 0,0 C 86 % 86 % 0 % 1038,8 hPa 0,0 l/m 0,0 km/h (0 Bft) SW 225 0 min 0,0 UV-I -13,2 C -11,3 C 0,0 km/h (0 Bft)
04.02.2012 08:50 -11,3 C -1,3 C -10,3 C -11,2 C -11,2 C 0,1 C 86 % 86 % 3 % 1038,8 hPa 0,0 l/m 0,0 km/h (0 Bft) SW 225 0 min 0,0 UV-I -13,2 C -11,2 C 0,0 km/h (0 Bft)
04.02.2012 08:55 -11,2 C -1,3 C -10,1 C -11,1 C -11,1 C 0,1 C 86 % 86 % 3 % 1038,8 hPa 0,0 l/m 0,0 km/h (0 Bft) SW 225 0 min 0,0 UV-I -13,1 C -11,1 C 0,0 km/h (0 Bft)
04.02.2012 09:00 -11,2 C -1,3 C -10,1 C -11,0 C -11,0 C 0,2 C 86 % 86 % 5 % 1038,8 hPa 0,0 l/m 0,0 km/h (0 Bft) SW 225 0 min 0,0 UV-I -13,1 C -11,0 C 0,0 km/h (0 Bft)
04.02.2012 09:11 -10,9 C -1,3 C -9,9 C -10,6 C -10,6 C 0,3 C 86 % 86 % 8 % 1038,8 hPa 0,0 l/m 0,0 km/h (0 Bft) N 0 0 min 0,0 UV-I -12,8 C -10,6 C 0,0 km/h (0 Bft)
04.02.2012 09:20 -10,9 C -1,3 C -9,9 C -10,2 C -10,2 C 0,7 C 86 % 86 % 18 % 1038,8 hPa 0,0 l/m 0,0 km/h (0 Bft) W-SW 247 0 min 0,0 UV-I -12,8 C -10,2 C 0,0 km/h (0 Bft)
04.02.2012 09:25 -10,9 C -1,3 C -9,7 C -10,1 C -10,1 C 0,8 C 86 % 86 % 21 % 1038,8 hPa 0,0 l/m 0,2 km/h (0 Bft) SW 225 0 min 0,0 UV-I -12,8 C -10,1 C 0,0 km/h (0 Bft)
04.02.2012 09:30 -10,8 C -1,3 C -9,8 C -10,0 C -10,0 C 0,8 C 86 % 86 % 21 % 1038,8 hPa 0,0 l/m 0,2 km/h (0 Bft) SW 225 0 min 0,0 UV-I -12,7 C -10,0 C 0,0 km/h (0 Bft)
04.02.2012 09:35 -10,7 C -1,3 C -9,5 C -9,6 C -9,6 C 1,1 C 86 % 86 % 29 % 1038,8 hPa 0,0 l/m 0,2 km/h (0 Bft) W-SW 247 0 min 0,0 UV-I -12,6 C -9,6 C 0,0 km/h (0 Bft)
04.02.2012 09:40 -10,5 C -1,3 C -9,3 C -9,2 C -9,2 C 1,3 C 87 % 86 % 34 % 1038,8 hPa 0,0 l/m 0,5 km/h (0 Bft) W-SW 247 0 min 0,0 UV-I -12,2 C -9,2 C 3,9 km/h (1 Bft)
04.02.2012 09:45 -10,3 C -1,3 C -9,3 C -9,1 C -9,1 C 1,2 C 87 % 86 % 32 % 1038,8 hPa 0,0 l/m 1,6 km/h (1 Bft) W-SW 247 0 min 0,0 UV-I -12,0 C -9,1 C 0,0 km/h (0 Bft)
04.02.2012 09:50 -10,4 C -1,3 C -9,3 C -9,8 C -9,8 C 0,6 C 87 % 85 % 16 % 1038,8 hPa 0,0 l/m 2,4 km/h (1 Bft) SW 225 0 min 0,0 UV-I -12,1 C -9,8 C 2,6 km/h (1 Bft)
04.02.2012 09:55 -10,3 C -1,3 C -9,5 C -9,2 C -9,2 C 1,1 C 86 % 85 % 29 % 1038,8 hPa 0,0 l/m 1,3 km/h (1 Bft) W-NW 292 0 min 0,0 UV-I -12,2 C -9,2 C 0,0 km/h (0 Bft)
04.02.2012 10:00 -10,3 C -1,3 C -9,5 C -9,3 C -9,3 C 1,0 C 86 % 85 % 26 % 1038,8 hPa 0,0 l/m 1,0 km/h (0 Bft) W-SW 247 0 min 0,0 UV-I -12,2 C -9,3 C 2,1 km/h (1 Bft)
04.02.2012 10:12 -10,3 C -1,3 C -9,6 C -9,4 C -9,4 C 0,9 C 86 % 84 % 24 % 1038,8 hPa 0,0 l/m 0,3 km/h (0 Bft) N 0 0 min 0,0 UV-I -12,2 C -9,4 C 0,0 km/h (0 Bft)
04.02.2012 10:20 -10,3 C -1,3 C -9,7 C -10,2 C -10,2 C 0,1 C 85 % 84 % 3 % 1039,7 hPa 0,0 l/m 2,1 km/h (1 Bft) W-SW 247 0 min 0,0 UV-I -12,3 C -10,2 C 5,3 km/h (1 Bft)
04.02.2012 10:25 -10,4 C -1,3 C -9,6 C -9,8 C -9,8 C 0,6 C 85 % 84 % 16 % 1039,7 hPa 0,0 l/m 1,9 km/h (1 Bft) W-SW 247 0 min 0,0 UV-I -12,4 C -9,8 C 6,3 km/h (2 Bft)
04.02.2012 10:30 -10,3 C -1,3 C -9,3 C -10,0 C -10,0 C 0,3 C 85 % 84 % 8 % 1039,7 hPa 0,0 l/m 2,4 km/h (1 Bft) W-SW 247 0 min 0,0 UV-I -12,3 C -10,0 C 3,9 km/h (1 Bft)
04.02.2012 10:35 -10,1 C -1,3 C -9,3 C -9,1 C -9,1 C 1,0 C 86 % 84 % 26 % 1039,7 hPa 0,0 l/m 2,3 km/h (1 Bft) SW 225 0 min 0,0 UV-I -12,0 C -9,1 C 0,0 km/h (0 Bft)
04.02.2012 10:40 -9,9 C -1,4 C -9,1 C -8,3 C -8,3 C 1,6 C 86 % 84 % 42 % 1039,7 hPa 0,0 l/m 1,4 km/h (1 Bft) W 270 0 min 0,0 UV-I -11,8 C -8,3 C 0,0 km/h (0 Bft)
04.02.2012 10:45 -9,7 C -1,4 C -8,9 C -7,6 C -7,6 C 2,1 C 86 % 84 % 55 % 1039,7 hPa 0,0 l/m 1,6 km/h (1 Bft) SW 225 0 min 0,0 UV-I -11,6 C -7,6 C 3,9 km/h (1 Bft)
04.02.2012 10:50 -9,7 C -1,4 C -8,8 C -8,3 C -8,3 C 1,4 C 85 % 84 % 37 % 1039,7 hPa 0,0 l/m 2,7 km/h (1 Bft) W-SW 247 0 min 0,0 UV-I -11,7 C -8,3 C 6,0 km/h (2 Bft)
04.02.2012 10:55 -9,7 C -1,4 C -8,8 C -8,5 C -8,5 C 1,2 C 85 % 84 % 32 % 1039,7 hPa 0,0 l/m 2,6 km/h (1 Bft) W-SW 247 0 min 0,0 UV-I -11,7 C -8,5 C 6,6 km/h (2 Bft)
04.02.2012 11:00 -9,7 C -1,4 C -8,9 C -8,2 C -8,2 C 1,5 C 85 % 84 % 39 % 1039,5 hPa 0,0 l/m 1,3 km/h (1 Bft) NW 315 0 min 0,0 UV-I -11,7 C -8,2 C 0,0 km/h (0 Bft)
04.02.2012 11:11 -9,7 C -1,3 C -9,1 C -8,9 C -8,9 C 0,8 C 84 % 83 % 21 % 1039,5 hPa 0,0 l/m 0,6 km/h (0 Bft) N 0 0 min 0,0 UV-I -11,9 C -8,9 C 0,0 km/h (0 Bft)
04.02.2012 11:20 -9,7 C -1,5 C -8,9 C -8,7 C -8,7 C 1,0 C 84 % 83 % 26 % 1040,4 hPa 0,0 l/m 2,3 km/h (1 Bft) W-SW 247 0 min 0,0 UV-I -11,9 C -8,7 C 3,7 km/h (1 Bft)
04.02.2012 11:25 -9,7 C -1,4 C -8,8 C -9,1 C -9,1 C 0,6 C 84 % 83 % 16 % 1040,4 hPa 0,0 l/m 3,2 km/h (1 Bft) W-SW 247 0 min 0,0 UV-I -11,9 C -9,1 C 4,7 km/h (1 Bft)
04.02.2012 11:30 -9,6 C -1,5 C -8,5 C -9,2 C -9,2 C 0,4 C 83 % 83 % 11 % 1040,4 hPa 0,0 l/m 3,9 km/h (1 Bft) S-SW 202 0 min 0,0 UV-I -11,9 C -9,2 C 5,1 km/h (1 Bft)
04.02.2012 11:35 -9,6 C -1,5 C -8,8 C -9,7 C -9,8 C 0,0 C 83 % 83 % 0 % 1040,4 hPa 0,0 l/m 4,0 km/h (1 Bft) SW 225 0 min 0,0 UV-I -11,9 C -9,8 C 6,8 km/h (2 Bft)
04.02.2012 11:40 -9,6 C -1,3 C -8,7 C -9,7 C -9,8 C 0,0 C 83 % 83 % 0 % 1040,2 hPa 0,0 l/m 3,5 km/h (1 Bft) SW 225 0 min 0,0 UV-I -11,9 C -9,8 C 4,8 km/h (1 Bft)
04.02.2012 11:45 -9,6 C -1,5 C -8,5 C -9,2 C -9,2 C 0,4 C 83 % 83 % 11 % 1040,2 hPa 0,0 l/m 2,7 km/h (1 Bft) W-SW 247 0 min 0,0 UV-I -11,9 C -9,2 C 2,9 km/h (1 Bft)
04.02.2012 11:50 -9,5 C -1,5 C -8,6 C -8,9 C -8,9 C 0,6 C 84 % 83 % 16 % 1040,2 hPa 0,0 l/m 2,7 km/h (1 Bft) S 180 0 min 0,0 UV-I -11,7 C -8,9 C 5,1 km/h (1 Bft)
04.02.2012 11:55 -9,5 C -1,4 C -8,5 C -9,7 C -10,2 C 0,0 C 83 % 83 % 0 % 1040,2 hPa 0,0 l/m 4,0 km/h (1 Bft) W-SW 247 0 min 0,0 UV-I -11,8 C -10,2 C 7,6 km/h (2 Bft)
04.02.2012 12:00 -9,5 C -1,4 C -8,5 C -9,8 C -10,4 C 0,0 C 83 % 83 % 0 % 1040,2 hPa 0,0 l/m 4,3 km/h (1 Bft) W-SW 247 0 min 0,0 UV-I -11,8 C -10,4 C 4,7 km/h (1 Bft)
04.02.2012 12:11 -9,3 C -1,5 C -8,4 C -9,4 C -9,6 C 0,0 C 83 % 82 % 0 % 1040,2 hPa 0,0 l/m 3,2 km/h (1 Bft) N 0 0 min 0,0 UV-I -11,6 C -9,6 C 6,0 km/h (2 Bft)
04.02.2012 12:20 -9,3 C -1,3 C -8,4 C -9,6 C -10,2 C 0,0 C 82 % 82 % 0 % 1040,2 hPa 0,0 l/m 3,9 km/h (1 Bft) W-SW 247 0 min 0,0 UV-I -11,8 C -10,2 C 7,7 km/h (2 Bft)
04.02.2012 12:25 -9,3 C -1,5 C -8,4 C -9,7 C -10,4 C 0,0 C 82 % 82 % 0 % 1040,2 hPa 0,0 l/m 4,2 km/h (1 Bft) SW 225 0 min 0,0 UV-I -11,8 C -10,4 C 7,2 km/h (2 Bft)
04.02.2012 12:30 -9,3 C -1,5 C -8,1 C -9,5 C -10,0 C 0,0 C 82 % 82 % 0 % 1040,2 hPa 0,0 l/m 3,9 km/h (1 Bft) W 270 0 min 0,0 UV-I -11,8 C -10,0 C 4,5 km/h (1 Bft)
04.02.2012 12:35 -9,2 C -1,4 C -8,1 C -9,4 C -9,8 C 0,0 C 82 % 82 % 0 % 1040,2 hPa 0,0 l/m 4,2 km/h (1 Bft) SW 225 0 min 0,0 UV-I -11,7 C -9,8 C 8,7 km/h (2 Bft)
04.02.2012 12:40 -9,3 C -1,4 C -8,1 C -9,6 C -10,1 C 0,0 C 82 % 82 % 0 % 1040,2 hPa 0,0 l/m 4,5 km/h (1 Bft) W-SW 247 0 min 0,0 UV-I -11,8 C -10,1 C 6,0 km/h (2 Bft)
04.02.2012 12:45 -9,2 C -1,3 C -8,1 C -9,0 C -9,0 C 0,2 C 82 % 81 % 5 % 1040,2 hPa 0,0 l/m 3,1 km/h (1 Bft) W-SW 247 0 min 0,0 UV-I -11,7 C -9,0 C 0,0 km/h (0 Bft)
04.02.2012 12:50 -9,1 C -1,3 C -8,1 C -7,6 C -7,6 C 1,5 C 82 % 82 % 39 % 1040,2 hPa 0,0 l/m 1,8 km/h (1 Bft) N-NW 337 0 min 0,0 UV-I -11,6 C -7,6 C 3,4 km/h (1 Bft)
04.02.2012 12:55 -8,9 C -1,3 C -8,1 C -7,4 C -7,4 C 1,5 C 82 % 81 % 39 % 1040,2 hPa 0,0 l/m 1,9 km/h (1 Bft) W-SW 247 0 min 0,0 UV-I -11,4 C -7,4 C 2,1 km/h (1 Bft)
04.02.2012 13:00 -8,9 C -1,3 C -7,9 C -7,8 C -7,8 C 1,1 C 81 % 82 % 29 % 1040,2 hPa 0,0 l/m 2,4 km/h (1 Bft) W-SW 247 0 min 0,0 UV-I -11,5 C -7,8 C 2,3 km/h (1 Bft)
04.02.2012 13:11 -8,8 C -1,3 C -7,9 C -6,8 C -6,8 C 2,0 C 81 % 81 % 53 % 1040,2 hPa 0,0 l/m 1,3 km/h (1 Bft) N 0 0 min 0,0 UV-I -11,5 C -6,8 C 0,0 km/h (0 Bft)
04.02.2012 13:20 -8,7 C -1,4 C -7,7 C -7,4 C -7,4 C 1,3 C 80 % 80 % 34 % 1040,2 hPa 0,0 l/m 3,1 km/h (1 Bft) SW 225 0 min 0,0 UV-I -11,5 C -7,4 C 3,5 km/h (1 Bft)
04.02.2012 13:25 -8,5 C -1,4 C -7,5 C -5,9 C -5,9 C 2,6 C 79 % 80 % 68 % 1040,2 hPa 0,0 l/m 3,2 km/h (1 Bft) W 270 0 min 0,0 UV-I -11,5 C -5,9 C 1,9 km/h (1 Bft)
04.02.2012 13:30 -8,5 C -1,4 C -7,2 C -4,6 C -4,6 C 3,9 C 80 % 81 % 100 % 1040,2 hPa 0,0 l/m 2,9 km/h (1 Bft) W-SW 247 5 min 0,0 UV-I -11,3 C -4,6 C 6,6 km/h (2 Bft)
04.02.2012 13:35 -8,5 C -1,4 C -7,5 C -5,8 C -5,8 C 2,7 C 78 % 79 % 71 % 1040,2 hPa 0,0 l/m 3,2 km/h (1 Bft) W-SW 247 0 min 0,0 UV-I -11,6 C -5,8 C 4,2 km/h (1 Bft)
04.02.2012 13:40 -8,7 C -1,4 C -7,5 C -6,8 C -6,8 C 1,9 C 79 % 79 % 50 % 1040,2 hPa 0,0 l/m 3,5 km/h (1 Bft) S-SW 202 0 min 0,0 UV-I -11,7 C -6,8 C 3,1 km/h (1 Bft)
04.02.2012 13:45 -8,5 C -1,4 C -7,3 C -7,4 C -7,4 C 1,1 C 79 % 79 % 29 % 1040,2 hPa 0,0 l/m 3,7 km/h (1 Bft) W-SW 247 0 min 0,0 UV-I -11,5 C -7,4 C 5,5 km/h (1 Bft)
04.02.2012 13:50 -8,5 C -1,4 C -7,1 C -7,6 C -7,6 C 0,9 C 79 % 79 % 24 % 1040,2 hPa 0,0 l/m 4,0 km/h (1 Bft) W 270 0 min 0,0 UV-I -11,5 C -7,6 C 5,5 km/h (1 Bft)
04.02.2012 13:55 -8,5 C -1,4 C -7,3 C -7,7 C -7,7 C 0,8 C 79 % 79 % 21 % 1040,2 hPa 0,0 l/m 4,7 km/h (1 Bft) SW 225 0 min 0,0 UV-I -11,5 C -10,1 C 4,8 km/h (1 Bft)
04.02.2012 14:00 -8,5 C -1,4 C -7,6 C -7,8 C -7,8 C 0,7 C 79 % 79 % 18 % 1040,2 hPa 0,0 l/m 4,5 km/h (1 Bft) W-SW 247 0 min 0,0 UV-I -11,5 C -7,8 C 3,2 km/h (1 Bft)
04.02.2012 14:11 -8,3 C -1,4 C -6,9 C -5,3 C -5,3 C 3,0 C 79 % 79 % 79 % 1040,2 hPa 0,0 l/m 2,6 km/h (1 Bft) N 0 0 min 0,0 UV-I -11,3 C -5,3 C 4,8 km/h (1 Bft)
04.02.2012 14:20 -8,1 C -1,4 C -7,3 C -6,6 C -6,6 C 1,5 C 77 % 77 % 39 % 1040,2 hPa 0,0 l/m 3,5 km/h (1 Bft) SW 225 0 min 0,0 UV-I -11,4 C -6,6 C 5,0 km/h (1 Bft)
04.02.2012 14:25 -8,5 C -1,4 C -7,3 C -8,0 C -8,0 C 0,5 C 77 % 78 % 13 % 1040,2 hPa 0,0 l/m 3,7 km/h (1 Bft) W-SW 247 0 min 0,0 UV-I -11,8 C -8,0 C 3,1 km/h (1 Bft)
04.02.2012 14:30 -8,3 C -1,4 C -7,4 C -8,1 C -8,1 C 0,2 C 78 % 78 % 5 % 1040,2 hPa 0,0 l/m 3,4 km/h (1 Bft) W 270 0 min 0,0 UV-I -11,4 C -8,1 C 0,0 km/h (0 Bft)
04.02.2012 14:35 -8,5 C -1,4 C -7,5 C -7,0 C -7,0 C 1,5 C 77 % 78 % 39 % 1040,2 hPa 0,0 l/m 1,8 km/h (1 Bft) S-SW 202 0 min 0,0 UV-I -11,8 C -7,0 C 1,9 km/h (1 Bft)
04.02.2012 14:40 -8,5 C -1,4 C -7,5 C -7,2 C -7,2 C 1,3 C 77 % 78 % 34 % 1040,2 hPa 0,0 l/m 1,3 km/h (1 Bft) SW 225 0 min 0,0 UV-I -11,8 C -7,2 C 1,6 km/h (1 Bft)
04.02.2012 14:45 -8,3 C -1,4 C -7,4 C -7,1 C -7,1 C 1,2 C 77 % 78 % 32 % 1040,2 hPa 0,0 l/m 0,8 km/h (0 Bft) S 180 0 min 0,0 UV-I -11,6 C -7,1 C 1,6 km/h (1 Bft)
04.02.2012 14:50 -8,4 C -1,4 C -7,3 C -7,1 C -7,1 C 1,3 C 77 % 78 % 34 % 1040,2 hPa 0,0 l/m 1,0 km/h (0 Bft) W-SW 247 0 min 0,0 UV-I -11,7 C -7,1 C 3,4 km/h (1 Bft)
04.02.2012 14:55 -8,5 C -1,4 C -7,6 C -8,2 C -8,2 C 0,3 C 77 % 77 % 8 % 1040,2 hPa 0,0 l/m 2,6 km/h (1 Bft) S 180 0 min 0,0 UV-I -11,8 C -8,2 C 5,6 km/h (1 Bft)
04.02.2012 15:00 -8,5 C -1,4 C -7,7 C -8,8 C -9,4 C 0,0 C 76 % 77 % 0 % 1040,2 hPa 0,0 l/m 3,4 km/h (1 Bft) SW 225 0 min 0,0 UV-I -12,0 C -9,4 C 1,8 km/h (1 Bft)
04.02.2012 15:10 -8,6 C -1,4 C -7,6 C -7,8 C -7,8 C 0,8 C 77 % 78 % 21 % 1040,2 hPa 0,0 l/m 0,6 km/h (0 Bft) N 0 0 min 0,0 UV-I -11,9 C -7,8 C 3,5 km/h (1 Bft)
04.02.2012 15:20 -8,3 C -1,4 C -7,3 C -8,3 C -8,4 C 0,0 C 76 % 77 % 0 % 1040,2 hPa 0,0 l/m 3,5 km/h (1 Bft) W-SW 247 0 min 0,0 UV-I -11,8 C -8,4 C 5,1 km/h (1 Bft)
04.02.2012 15:25 -8,0 C -1,4 C -7,3 C -7,9 C -7,9 C 0,1 C 76 % 77 % 3 % 1040,2 hPa 0,0 l/m 4,8 km/h (1 Bft) W 270 0 min 0,0 UV-I -11,5 C -10,4 C 10,1 km/h (2 Bft)
04.02.2012 15:30 -8,0 C -1,4 C -7,3 C -7,8 C -7,8 C 0,2 C 75 % 77 % 5 % 1040,2 hPa 0,0 l/m 5,6 km/h (1 Bft) W-SW 247 0 min 0,0 UV-I -11,6 C -10,8 C 6,3 km/h (2 Bft)
04.02.2012 15:35 -8,1 C -1,4 C -7,7 C -8,3 C -8,6 C 0,0 C 75 % 77 % 0 % 1040,2 hPa 0,0 l/m 5,3 km/h (1 Bft) W-SW 247 0 min 0,0 UV-I -11,7 C -11,5 C 10,5 km/h (2 Bft)
04.02.2012 15:40 -8,4 C -1,3 C -7,7 C -8,6 C -9,1 C 0,0 C 76 % 78 % 0 % 1040,2 hPa 0,0 l/m 4,5 km/h (1 Bft) NO 45 0 min 0,0 UV-I -11,9 C -9,1 C 3,1 km/h (1 Bft)
04.02.2012 15:45 -8,5 C -1,3 C -7,9 C -8,7 C -9,1 C 0,0 C 76 % 78 % 0 % 1040,2 hPa 0,0 l/m 3,4 km/h (1 Bft) W-SW 247 0 min 0,0 UV-I -12,0 C -9,1 C 3,1 km/h (1 Bft)
04.02.2012 15:50 -8,5 C -1,3 C -7,9 C -8,6 C -8,7 C 0,0 C 76 % 78 % 0 % 1040,2 hPa 0,0 l/m 2,6 km/h (1 Bft) W 270 0 min 0,0 UV-I -12,0 C -8,7 C 5,5 km/h (1 Bft)
04.02.2012 15:55 -8,5 C -1,3 C -8,0 C -8,7 C -9,1 C 0,0 C 77 % 78 % 0 % 1040,2 hPa 0,0 l/m 2,7 km/h (1 Bft) W-SW 247 0 min 0,0 UV-I -11,8 C -9,1 C 2,3 km/h (1 Bft)
04.02.2012 16:00 -8,5 C -1,3 C -7,9 C -8,6 C -8,9 C 0,0 C 76 % 78 % 0 % 1040,2 hPa 0,0 l/m 2,6 km/h (1 Bft) W-SW 247 0 min 0,0 UV-I -12,0 C -8,9 C 3,5 km/h (1 Bft)
04.02.2012 16:12 -8,7 C -1,3 C -8,0 C -9,2 C -10,3 C 0,0 C 75 % 76 % 0 % 1040,2 hPa 0,0 l/m 4,0 km/h (1 Bft) N 0 0 min 0,0 UV-I -12,3 C -10,3 C 6,6 km/h (2 Bft)
04.02.2012 16:20 -8,7 C -1,3 C -8,1 C -8,9 C -9,2 C 0,0 C 75 % 77 % 0 % 1040,2 hPa 0,0 l/m 2,6 km/h (1 Bft) W-NW 292 0 min 0,0 UV-I -12,3 C -9,2 C 0,0 km/h (0 Bft)
04.02.2012 16:25 -8,7 C -1,3 C -8,1 C -8,6 C -8,6 C 0,1 C 75 % 76 % 3 % 1040,2 hPa 0,0 l/m 1,1 km/h (1 Bft) W-SW 247 0 min 0,0 UV-I -12,3 C -8,6 C 0,0 km/h (0 Bft)
04.02.2012 16:30 -8,7 C -1,3 C -8,1 C -8,7 C -8,7 C 0,0 C 75 % 76 % 0 % 1040,2 hPa 0,0 l/m 0,5 km/h (0 Bft) W-NW 292 0 min 0,0 UV-I -12,3 C -8,7 C 0,0 km/h (0 Bft)
04.02.2012 16:35 -8,7 C -1,3 C -8,1 C -8,7 C -8,8 C 0,0 C 75 % 76 % 0 % 1040,2 hPa 0,0 l/m 0,6 km/h (0 Bft) W 270 0 min 0,0 UV-I -12,3 C -8,8 C 2,7 km/h (1 Bft)
04.02.2012 16:40 -8,8 C -1,3 C -8,1 C -8,8 C -8,9 C 0,0 C 75 % 76 % 0 % 1040,2 hPa 0,0 l/m 0,8 km/h (0 Bft) W-SW 247 0 min 0,0 UV-I -12,4 C -8,9 C 1,6 km/h (1 Bft)
04.02.2012 16:45 -8,7 C -1,3 C -8,1 C -8,8 C -9,0 C 0,0 C 75 % 77 % 0 % 1040,2 hPa 0,0 l/m 0,6 km/h (0 Bft) SW 225 0 min 0,0 UV-I -12,3 C -9,0 C 1,8 km/h (1 Bft)
04.02.2012 16:50 -8,9 C -1,3 C -8,3 C -9,0 C -9,1 C 0,0 C 75 % 76 % 0 % 1040,2 hPa 0,0 l/m 0,3 km/h (0 Bft) NW 315 0 min 0,0 UV-I -12,5 C -9,1 C 0,0 km/h (0 Bft)
04.02.2012 16:55 -8,9 C -1,3 C -8,3 C -9,0 C -9,2 C 0,0 C 75 % 77 % 0 % 1040,2 hPa 0,0 l/m 0,3 km/h (0 Bft) W-SW 247 0 min 0,0 UV-I -12,5 C -9,2 C 0,0 km/h (0 Bft)
04.02.2012 17:00 -8,9 C -1,3 C -8,3 C -9,0 C -9,3 C 0,0 C 75 % 77 % 0 % 1040,2 hPa 0,0 l/m 0,3 km/h (0 Bft) W-SW 247 0 min 0,0 UV-I -12,5 C -9,3 C 0,0 km/h (0 Bft)
04.02.2012 17:12 -9,0 C -1,3 C -8,4 C -9,1 C -9,4 C 0,0 C 75 % 77 % 0 % 1040,2 hPa 0,0 l/m 0,5 km/h (0 Bft) N 0 0 min 0,0 UV-I -12,6 C -9,4 C 2,1 km/h (1 Bft)
04.02.2012 17:20 -8,9 C -1,3 C -8,4 C -9,1 C -9,5 C 0,0 C 76 % 77 % 0 % 1040,2 hPa 0,0 l/m 0,3 km/h (0 Bft) NW 315 0 min 0,0 UV-I -12,3 C -9,5 C 0,0 km/h (0 Bft)
04.02.2012 17:25 -9,1 C -1,3 C -8,5 C -9,2 C -9,5 C 0,0 C 76 % 77 % 0 % 1040,2 hPa 0,0 l/m 0,0 km/h (0 Bft) W 270 0 min 0,0 UV-I -12,5 C -9,5 C 0,0 km/h (0 Bft)
04.02.2012 17:30 -9,1 C -1,3 C -8,5 C -9,2 C -9,5 C 0,0 C 76 % 77 % 0 % 1040,2 hPa 0,0 l/m 0,0 km/h (0 Bft) SW 225 0 min 0,0 UV-I -12,5 C -9,5 C 0,0 km/h (0 Bft)
04.02.2012 17:35 -9,1 C -1,3 C -8,5 C -9,2 C -9,5 C 0,0 C 76 % 78 % 0 % 1040,2 hPa 0,0 l/m 0,5 km/h (0 Bft) W 270 0 min 0,0 UV-I -12,5 C -9,5 C 1,9 km/h (1 Bft)
04.02.2012 17:40 -9,1 C -1,3 C -8,5 C -9,2 C -9,5 C 0,0 C 76 % 78 % 0 % 1040,2 hPa 0,0 l/m 0,5 km/h (0 Bft) W-SW 247 0 min 0,0 UV-I -12,5 C -9,5 C 0,0 km/h (0 Bft)
04.02.2012 17:45 -9,1 C -1,3 C -8,5 C -9,2 C -9,5 C 0,0 C 77 % 78 % 0 % 1040,2 hPa 0,0 l/m 0,5 km/h (0 Bft) W-SW 247 0 min 0,0 UV-I -12,4 C -9,5 C 3,2 km/h (1 Bft)
04.02.2012 17:50 -9,2 C -1,3 C -8,5 C -9,3 C -9,5 C 0,0 C 77 % 79 % 0 % 1040,2 hPa 0,0 l/m 1,0 km/h (0 Bft) W-SW 247 0 min 0,0 UV-I -12,5 C -9,5 C 0,0 km/h (0 Bft)
04.02.2012 17:55 -9,2 C -1,3 C -8,5 C -9,3 C -9,6 C 0,0 C 77 % 79 % 0 % 1040,2 hPa 0,0 l/m 1,0 km/h (0 Bft) SW 225 0 min 0,0 UV-I -12,5 C -9,6 C 0,0 km/h (0 Bft)
04.02.2012 18:00 -9,2 C -1,3 C -8,5 C -9,3 C -9,6 C 0,0 C 77 % 79 % 0 % 1040,2 hPa 0,0 l/m 0,5 km/h (0 Bft) W 270 0 min 0,0 UV-I -12,5 C -9,6 C 0,0 km/h (0 Bft)
04.02.2012 18:11 -9,2 C -1,3 C -8,7 C -9,4 C -9,7 C 0,0 C 77 % 79 % 0 % 1040,2 hPa 0,0 l/m 0,5 km/h (0 Bft) N 0 0 min 0,0 UV-I -12,5 C -9,7 C 2,3 km/h (1 Bft)
04.02.2012 18:20 -9,3 C -1,3 C -8,7 C -9,5 C -9,9 C 0,0 C 77 % 79 % 0 % 1040,2 hPa 0,0 l/m 0,2 km/h (0 Bft) W-NW 292 0 min 0,0 UV-I -12,6 C -9,9 C 0,0 km/h (0 Bft)
04.02.2012 18:25 -9,3 C -1,3 C -8,8 C -9,5 C -10,0 C 0,0 C 77 % 79 % 0 % 1040,2 hPa 0,0 l/m 0,0 km/h (0 Bft) W-SW 247 0 min 0,0 UV-I -12,6 C -10,0 C 0,0 km/h (0 Bft)
04.02.2012 18:30 -9,3 C -1,3 C -8,7 C -9,6 C -10,1 C 0,0 C 78 % 79 % 0 % 1040,2 hPa 0,0 l/m 0,2 km/h (0 Bft) W 270 0 min 0,0 UV-I -12,4 C -10,1 C 0,0 km/h (0 Bft)
04.02.2012 18:35 -9,3 C -1,3 C -8,9 C -9,6 C -10,1 C 0,0 C 78 % 80 % 0 % 1040,2 hPa 0,0 l/m 0,0 km/h (0 Bft) W-SW 247 0 min 0,0 UV-I -12,4 C -10,1 C 0,0 km/h (0 Bft)
04.02.2012 18:40 -9,4 C -1,2 C -8,9 C -9,7 C -10,2 C 0,0 C 78 % 80 % 0 % 1040,2 hPa 0,0 l/m 0,0 km/h (0 Bft) SW 225 0 min 0,0 UV-I -12,5 C -10,2 C 4,2 km/h (1 Bft)
04.02.2012 18:45 -9,3 C -1,2 C -8,9 C -9,6 C -10,2 C 0,0 C 79 % 81 % 0 % 1040,2 hPa 0,0 l/m 0,0 km/h (0 Bft) W 270 0 min 0,0 UV-I -12,2 C -10,2 C 0,0 km/h (0 Bft)
04.02.2012 18:50 -9,3 C -1,2 C -8,9 C -9,6 C -10,2 C 0,0 C 79 % 81 % 0 % 1040,2 hPa 0,0 l/m 0,2 km/h (0 Bft) NW 315 0 min 0,0 UV-I -12,2 C -10,2 C 0,0 km/h (0 Bft)
04.02.2012 18:55 -9,5 C -1,2 C -8,9 C -9,7 C -10,2 C 0,0 C 79 % 82 % 0 % 1040,2 hPa 0,0 l/m 0,0 km/h (0 Bft) W-NW 292 0 min 0,0 UV-I -12,4 C -10,2 C 0,0 km/h (0 Bft)
04.02.2012 19:00 -9,5 C -1,2 C -8,9 C -9,7 C -10,2 C 0,0 C 79 % 82 % 0 % 1040,2 hPa 0,0 l/m 0,0 km/h (0 Bft) W-SW 247 0 min 0,0 UV-I -12,4 C -10,2 C 0,0 km/h (0 Bft)
04.02.2012 19:11 -9,7 C -1,2 C -8,9 C -9,9 C -10,4 C 0,0 C 80 % 82 % 0 % 1040,2 hPa 0,0 l/m 0,6 km/h (0 Bft) N 0 0 min 0,0 UV-I -12,5 C -10,4 C 0,0 km/h (0 Bft)
04.02.2012 19:20 -9,7 C -1,2 C -9,1 C -10,0 C -10,5 C 0,0 C 81 % 82 % 0 % 1040,2 hPa 0,0 l/m 0,3 km/h (0 Bft) W-SW 247 0 min 0,0 UV-I -12,3 C -10,5 C 0,0 km/h (0 Bft)
04.02.2012 19:25 -9,8 C -1,2 C -9,2 C -10,1 C -10,6 C 0,0 C 81 % 82 % 0 % 1040,2 hPa 0,0 l/m 0,5 km/h (0 Bft) SW 225 0 min 0,0 UV-I -12,4 C -10,6 C 1,8 km/h (1 Bft)
04.02.2012 19:30 -9,7 C -1,2 C -9,1 C -10,0 C -10,6 C 0,0 C 81 % 82 % 0 % 1040,2 hPa 0,0 l/m 0,8 km/h (0 Bft) SW 225 0 min 0,0 UV-I -12,3 C -10,6 C 0,0 km/h (0 Bft)
04.02.2012 19:35 -9,9 C -1,2 C -9,1 C -10,1 C -10,6 C 0,0 C 81 % 83 % 0 % 1040,2 hPa 0,0 l/m 0,5 km/h (0 Bft) SW 225 0 min 0,0 UV-I -12,5 C -10,6 C 0,0 km/h (0 Bft)
04.02.2012 19:40 -9,9 C -1,2 C -9,2 C -10,1 C -10,6 C 0,0 C 81 % 83 % 0 % 1040,2 hPa 0,0 l/m 0,6 km/h (0 Bft) SW 225 0 min 0,0 UV-I -12,5 C -10,6 C 1,9 km/h (1 Bft)
04.02.2012 19:45 -9,9 C -1,2 C -9,1 C -10,1 C -10,6 C 0,0 C 81 % 83 % 0 % 1040,2 hPa 0,0 l/m 0,8 km/h (0 Bft) W-SW 247 0 min 0,0 UV-I -12,5 C -10,6 C 0,0 km/h (0 Bft)
04.02.2012 19:50 -9,9 C -1,2 C -9,2 C -10,1 C -10,6 C 0,0 C 81 % 83 % 0 % 1040,2 hPa 0,0 l/m 0,5 km/h (0 Bft) W-SW 247 0 min 0,0 UV-I -12,5 C -10,6 C 0,0 km/h (0 Bft)
04.02.2012 19:55 -9,9 C -1,2 C -9,1 C -10,1 C -10,6 C 0,0 C 82 % 83 % 0 % 1040,2 hPa 0,0 l/m 0,2 km/h (0 Bft) N-NW 337 0 min 0,0 UV-I -12,4 C -10,6 C 0,0 km/h (0 Bft)
04.02.2012 20:00 -9,9 C -1,2 C -9,3 C -10,1 C -10,5 C 0,0 C 82 % 83 % 0 % 1040,2 hPa 0,0 l/m 0,3 km/h (0 Bft) W-SW 247 0 min 0,0 UV-I -12,4 C -10,5 C 1,6 km/h (1 Bft)
04.02.2012 20:11 -9,9 C -1,2 C -9,3 C -10,1 C -10,5 C 0,0 C 82 % 84 % 0 % 1040,2 hPa 0,0 l/m 1,1 km/h (1 Bft) N 0 0 min 0,0 UV-I -12,4 C -10,5 C 1,9 km/h (1 Bft)
04.02.2012 20:20 -9,9 C -1,2 C -9,1 C -10,1 C -10,4 C 0,0 C 82 % 84 % 0 % 1040,2 hPa 0,0 l/m 1,0 km/h (0 Bft) W-SW 247 0 min 0,0 UV-I -12,4 C -10,4 C 1,6 km/h (1 Bft)
04.02.2012 20:25 -9,9 C -1,2 C -9,3 C -10,1 C -10,4 C 0,0 C 83 % 84 % 0 % 1040,2 hPa 0,0 l/m 0,8 km/h (0 Bft) W-SW 247 0 min 0,0 UV-I -12,2 C -10,4 C 2,7 km/h (1 Bft)
04.02.2012 20:30 -9,9 C -1,2 C -9,3 C -10,1 C -10,4 C 0,0 C 83 % 84 % 0 % 1040,2 hPa 0,0 l/m 1,4 km/h (1 Bft) SW 225 0 min 0,0 UV-I -12,2 C -10,4 C 1,9 km/h (1 Bft)
04.02.2012 20:35 -10,0 C -1,2 C -9,2 C -10,1 C -10,4 C 0,0 C 83 % 84 % 0 % 1040,2 hPa 0,0 l/m 1,0 km/h (0 Bft) W 270 0 min 0,0 UV-I -12,3 C -10,4 C 1,8 km/h (1 Bft)
04.02.2012 20:40 -10,0 C -1,2 C -9,2 C -10,1 C -10,4 C 0,0 C 83 % 84 % 0 % 1040,2 hPa 0,0 l/m 0,8 km/h (0 Bft) SW 225 0 min 0,0 UV-I -12,3 C -10,4 C 3,2 km/h (1 Bft)
04.02.2012 20:45 -10,0 C -1,2 C -9,2 C -10,1 C -10,4 C 0,0 C 83 % 84 % 0 % 1040,2 hPa 0,0 l/m 1,6 km/h (1 Bft) W-SW 247 0 min 0,0 UV-I -12,3 C -10,4 C 0,0 km/h (0 Bft)
04.02.2012 20:50 -9,9 C -1,2 C -9,2 C -10,1 C -10,4 C 0,0 C 83 % 84 % 0 % 1040,2 hPa 0,0 l/m 1,3 km/h (1 Bft) W 270 0 min 0,0 UV-I -12,2 C -10,4 C 0,0 km/h (0 Bft)
04.02.2012 20:55 -9,9 C -1,2 C -9,3 C -10,1 C -10,4 C 0,0 C 83 % 84 % 0 % 1040,2 hPa 0,0 l/m 1,1 km/h (1 Bft) SW 225 0 min 0,0 UV-I -12,2 C -10,4 C 1,8 km/h (1 Bft)
04.02.2012 21:00 -9,9 C -1,2 C -9,3 C -10,1 C -10,4 C 0,0 C 83 % 84 % 0 % 1040,2 hPa 0,0 l/m 1,4 km/h (1 Bft) W-SW 247 0 min 0,0 UV-I -12,2 C -10,4 C 2,3 km/h (1 Bft)
04.02.2012 21:10 -9,9 C -1,2 C -9,2 C -10,1 C -10,4 C 0,0 C 83 % 84 % 0 % 1040,2 hPa 0,0 l/m 0,3 km/h (0 Bft) N 0 0 min 0,0 UV-I -12,2 C -10,4 C 0,0 km/h (0 Bft)
04.02.2012 21:20 -9,9 C -1,2 C -9,1 C -10,1 C -10,4 C 0,0 C 83 % 84 % 0 % 1040,2 hPa 0,0 l/m 1,8 km/h (1 Bft) W-SW 247 0 min 0,0 UV-I -12,2 C -10,4 C 1,8 km/h (1 Bft)
04.02.2012 21:25 -9,9 C -1,2 C -9,3 C -10,1 C -10,4 C 0,0 C 83 % 84 % 0 % 1040,2 hPa 0,0 l/m 1,8 km/h (1 Bft) W-SW 247 0 min 0,0 UV-I -12,2 C -10,4 C 0,0 km/h (0 Bft)
04.02.2012 21:30 -9,9 C -1,2 C -9,1 C -10,1 C -10,4 C 0,0 C 83 % 84 % 0 % 1040,2 hPa 0,0 l/m 1,0 km/h (0 Bft) W 270 0 min 0,0 UV-I -12,2 C -10,4 C 0,0 km/h (0 Bft)
04.02.2012 21:35 -9,9 C -1,2 C -9,1 C -10,1 C -10,4 C 0,0 C 83 % 84 % 0 % 1040,2 hPa 0,0 l/m 0,8 km/h (0 Bft) W-SW 247 0 min 0,0 UV-I -12,2 C -10,4 C 3,4 km/h (1 Bft)
04.02.2012 21:40 -9,9 C -1,2 C -9,3 C -10,1 C -10,4 C 0,0 C 83 % 84 % 0 % 1040,2 hPa 0,0 l/m 1,8 km/h (1 Bft) W-SW 247 0 min 0,0 UV-I -12,2 C -10,4 C 3,1 km/h (1 Bft)
04.02.2012 21:45 -9,9 C -1,2 C -9,3 C -10,2 C -10,8 C 0,0 C 83 % 84 % 0 % 1040,2 hPa 0,0 l/m 2,1 km/h (1 Bft) SW 225 0 min 0,0 UV-I -12,2 C -10,8 C 2,1 km/h (1 Bft)
04.02.2012 21:50 -9,9 C -1,2 C -9,1 C -10,1 C -10,4 C 0,0 C 83 % 84 % 0 % 1040,2 hPa 0,0 l/m 1,6 km/h (1 Bft) W-SW 247 0 min 0,0 UV-I -12,2 C -10,4 C 1,8 km/h (1 Bft)
04.02.2012 21:55 -9,9 C -1,2 C -9,2 C -10,1 C -10,4 C 0,0 C 83 % 84 % 0 % 1040,2 hPa 0,0 l/m 0,5 km/h (0 Bft) S-SW 202 0 min 0,0 UV-I -12,2 C -10,4 C 0,0 km/h (0 Bft)
04.02.2012 22:00 -9,9 C -1,3 C -9,2 C -10,1 C -10,4 C 0,0 C 83 % 84 % 0 % 1040,2 hPa 0,0 l/m 1,0 km/h (0 Bft) SW 225 0 min 0,0 UV-I -12,2 C -10,4 C 3,1 km/h (1 Bft)
04.02.2012 22:12 -10,0 C -1,3 C -9,3 C -10,3 C -10,8 C 0,0 C 83 % 84 % 0 % 1040,2 hPa 0,0 l/m 2,1 km/h (1 Bft) N 0 0 min 0,0 UV-I -12,3 C -10,8 C 0,0 km/h (0 Bft)
04.02.2012 22:20 -10,0 C -1,2 C -9,3 C -10,2 C -10,5 C 0,0 C 83 % 84 % 0 % 1040,2 hPa 0,0 l/m 0,0 km/h (0 Bft) W-SW 247 0 min 0,0 UV-I -12,3 C -10,5 C 0,0 km/h (0 Bft)
04.02.2012 22:25 -10,0 C -1,3 C -9,3 C -10,2 C -10,6 C 0,0 C 83 % 84 % 0 % 1040,2 hPa 0,0 l/m 0,0 km/h (0 Bft) W 270 0 min 0,0 UV-I -12,3 C -10,6 C 0,0 km/h (0 Bft)
04.02.2012 22:30 -10,1 C -1,2 C -9,3 C -10,3 C -10,7 C 0,0 C 83 % 84 % 0 % 1040,2 hPa 0,0 l/m 0,0 km/h (0 Bft) W 270 0 min 0,0 UV-I -12,4 C -10,7 C 0,0 km/h (0 Bft)
04.02.2012 22:35 -10,1 C -1,2 C -9,3 C -10,3 C -10,8 C 0,0 C 83 % 84 % 0 % 1040,2 hPa 0,0 l/m 0,0 km/h (0 Bft) W 270 0 min 0,0 UV-I -12,4 C -10,8 C 0,0 km/h (0 Bft)
04.02.2012 22:40 -10,1 C -1,2 C -9,3 C -10,3 C -10,8 C 0,0 C 83 % 84 % 0 % 1040,2 hPa 0,0 l/m 0,0 km/h (0 Bft) W-SW 247 0 min 0,0 UV-I -12,4 C -10,8 C 1,8 km/h (1 Bft)
04.02.2012 22:45 -10,1 C -1,3 C -9,3 C -10,4 C -11,0 C 0,0 C 83 % 84 % 0 % 1040,2 hPa 0,0 l/m 0,3 km/h (0 Bft) W-SW 247 0 min 0,0 UV-I -12,4 C -11,0 C 0,0 km/h (0 Bft)
04.02.2012 22:50 -10,1 C -1,3 C -9,3 C -10,4 C -11,0 C 0,0 C 83 % 84 % 0 % 1040,2 hPa 0,0 l/m 0,6 km/h (0 Bft) W-SW 247 0 min 0,0 UV-I -12,4 C -11,0 C 2,6 km/h (1 Bft)
04.02.2012 22:55 -10,1 C -1,3 C -9,3 C -10,3 C -10,8 C 0,0 C 83 % 84 % 0 % 1040,2 hPa 0,0 l/m 0,6 km/h (0 Bft) W-SW 247 0 min 0,0 UV-I -12,4 C -10,8 C 0,0 km/h (0 Bft)
04.02.2012 23:00 -10,1 C -1,3 C -9,3 C -10,3 C -10,7 C 0,0 C 83 % 84 % 0 % 1040,2 hPa 0,0 l/m 0,6 km/h (0 Bft) W 270 0 min 0,0 UV-I -12,4 C -10,7 C 0,0 km/h (0 Bft)
04.02.2012 23:11 -10,1 C -1,3 C -9,3 C -10,3 C -10,8 C 0,0 C 83 % 84 % 0 % 1040,2 hPa 0,0 l/m 0,0 km/h (0 Bft) N 0 0 min 0,0 UV-I -12,4 C -10,8 C 0,0 km/h (0 Bft)
04.02.2012 23:20 -10,1 C -1,3 C -9,3 C -10,3 C -10,8 C 0,0 C 83 % 84 % 0 % 1040,2 hPa 0,0 l/m 0,0 km/h (0 Bft) O 90 0 min 0,0 UV-I -12,4 C -10,8 C 0,0 km/h (0 Bft)
04.02.2012 23:25 -10,1 C -1,3 C -9,4 C -10,3 C -10,8 C 0,0 C 83 % 84 % 0 % 1040,2 hPa 0,0 l/m 0,6 km/h (0 Bft) W-SW 247 0 min 0,0 UV-I -12,4 C -10,8 C 0,0 km/h (0 Bft)
04.02.2012 23:30 -10,2 C -1,3 C -9,3 C -10,4 C -10,8 C 0,0 C 83 % 84 % 0 % 1040,2 hPa 0,0 l/m 0,8 km/h (0 Bft) W-SW 247 0 min 0,0 UV-I -12,5 C -10,8 C 0,0 km/h (0 Bft)
04.02.2012 23:35 -10,1 C -1,3 C -9,3 C -10,3 C -10,7 C 0,0 C 83 % 84 % 0 % 1040,2 hPa 0,0 l/m 0,6 km/h (0 Bft) W-SW 247 0 min 0,0 UV-I -12,4 C -10,7 C 0,0 km/h (0 Bft)
04.02.2012 23:40 -10,1 C -1,3 C -9,3 C -10,3 C -10,7 C 0,0 C 83 % 84 % 0 % 1040,2 hPa 0,0 l/m 0,3 km/h (0 Bft) W-SW 247 0 min 0,0 UV-I -12,4 C -10,7 C 0,0 km/h (0 Bft)
04.02.2012 23:45 -10,1 C -1,3 C -9,3 C -10,3 C -10,7 C 0,0 C 83 % 84 % 0 % 1040,2 hPa 0,0 l/m 0,0 km/h (0 Bft) SW 225 0 min 0,0 UV-I -12,4 C -10,7 C 0,0 km/h (0 Bft)
04.02.2012 23:50 -10,1 C -1,3 C -9,3 C -10,3 C -10,7 C 0,0 C 83 % 84 % 0 % 1040,2 hPa 0,0 l/m 0,0 km/h (0 Bft) W-SW 247 0 min 0,0 UV-I -12,4 C -10,7 C 0,0 km/h (0 Bft)
04.02.2012 23:55 -10,3 C -1,3 C -9,3 C -10,5 C -10,8 C 0,0 C 83 % 84 % 0 % 1040,2 hPa 0,0 l/m 0,0 km/h (0 Bft) W-SW 247 0 min 0,0 UV-I -12,6 C -10,8 C 0,0 km/h (0 Bft)
_ Min-Zeit 00:00 11:20 00:00 00:00 00:00 00:00 15:30 16:12 00:00 00:00 - 00:10 - - - 00:00 00:00 00:00 00:00
Minimum _ -13,3 C -1,5 C -11,9 C -13,5 C -13,9 C 0,0 C 75 % 76 % 0 % 1035,9 hPa - 0,0 km/h (0 Bft) - - - 0,0 UV-I -15,4 C -13,9 C 0,0 km/h (0 Bft)
_ Max-Zeit 15:25 00:00 14:11 13:30 13:30 13:30 09:40 04:25 13:30 11:20 00:00 15:30 - - 13:30 00:00 14:11 13:30 15:35
Maximum _ -8,0 C -1,1 C -6,9 C -4,6 C -4,6 C 3,9 C 87 % 87 % 100 % 1040,4 hPa 0,0 l/m 5,6 km/h
W-SW (1 Bft)
- - 5 min 0,0 UV-I -11,3 C -4,6 C 10,5 km/h
W-SW (2 Bft)
Durchschnitt _ -10,3 C -1,3 C -9,4 C -10,2 C -10,4 C 0,2 C 83 % 83 % 6 % 1039,5 hPa #0,0 l/m 1,1 km/h (0 Bft) W-SW - #5 min. 0,0 UV-I -12,7 C -10,5 C 1,5 km/h (1 Bft)
2012 www.wetterstation-wechselburg.de